Temp
-15 -15 -15 -15 -15 -15 -16 -16 -16 -16 -16 -16 -16 -16 -16 -16 -16 -16 -16 -16 -15 -15 -15 -15 -15 -15 -15 -14 -14 -14 -14 -14 -15 -15 -14 -14 -14 -14 -15 -15 -14 -13 -13
-15 -15 -15 -16 -16 -16 -16 -16 -16 -16 -16 -16 -16 -16 -16 -16 -16 -15 -15 -15 -15 -15 -15 -15 -16 -15 -15 -15 -15 -14 -14 -14 -14 -14 -14 -14 -14 -14 -14 -14 -15 -14 -14
-16 -15 -16 -16 -17 -16 -16 -16 -16 -16 -16 -16 -16 -16 -16 -16 -15 -15 -15 -15 -15 -15 -15 -15 -15 -15 -15 -15 -15 -15 -14 -14 -14 -14 -14 -14 -14 -14 -14 -14 -14 -15 -14
-16 -16 -17 -17 -17 -16 -16 -16 -16 -16 -16 -16 -16 -16 -16 -16 -16 -16 -15 -15 -15 -15 -15 -15 -15 -15 -15 -15 -15 -15 -15 -15 -14 -14 -14 -14 -14 -14 -14 -14 -14 -14 -15
-16 -17 -17 -17 -17 -17 -17 -17 -17 -17 -17 -17 -17 -17 -17 -17 -17 -17 -16 -16 -15 -15 -15 -15 -15 -15 -15 -15 -15 -15 -15 -15 -15 -15 -15 -15 -14 -14 -14 -14 -14 -14 -14
-17 -17 -17 -17 -17 -17 -17 -17 -17 -17 -17 -17 -17 -17 -18 -18 -18 -17 -17 -17 -17 -16 -16 -16 -15 -15 -15 -15 -15 -15 -15 -15 -15 -15 -15 -15 -15 -14 -14 -14 -14 -14 -15
-17 -17 -17 -17 -17 -17 -17 -17 -18 -18 -18 -18 -18 -18 -18 -19 -19 -19 -19 -18 -18 -18 -17 -17 -16 -16 -16 -16 -16 -16 -16 -16 -16 -16 -15 -15 -16 -15 -15 -14 -14 -15 -15
-18 -18 -17 -17 -17 -18 -18 -18 -18 -19 -19 -19 -19 -19 -19 -19 -20 -20 -20 -20 -20 -20 -20 -20 -19 -19 -18 -17 -17 -17 -17 -17 -17 -17 -17 -16 -16 -16 -15 -15 -15 -15 -15
-18 -18 -18 -18 -18 -19 -19 -20 -20 -20 -19 -20 -20 -20 -20 -20 -20 -21 -21 -21 -22 -22 -22 -22 -22 -21 -21 -20 -19 -18 -18 -19 -18 -18 -18 -18 -18 -16 -16 -16 -15 -15 -15
-19 -19 -20 -19 -19 -19 -19 -19 -19 -19 -20 -20 -20 -21 -22 -22 -22 -22 -22 -23 -23 -23 -23 -23 -23 -23 -23 -22 -21 -21 -20 -20 -20 -20 -19 -19 -19 -19 -18 -16 -16 -15 -16
-19 -19 -19 -19 -19 -19 -19 -19 -20 -20 -21 -21 -22 -23 -23 -24 -24 -25 -25 -25 -25 -25 -25 -26 -25 -25 -25 -24 -24 -23 -22 -22 -22 -21 -21 -21 -21 -20 -19 -19 -18 -16 -16
-18 -18 -18 -18 -18 -19 -19 -20 -21 -22 -22 -23 -24 -24 -25 -26 -27 -28 -28 -29 -29 -29 -28 -28 -29 -28 -28 -28 -26 -25 -25 -24 -24 -23 -23 -22 -22 -22 -21 -21 -20 -19 -17
-18 -18 -18 -19 -19 -20 -20 -21 -22 -23 -23 -24 -26 -27 -28 -29 -30 -31 -31 -31 -31 -31 -31 -30 -30 -30 -30 -30 -29 -28 -27 -26 -25 -25 -24 -24 -23 -22 -22 -22 -21 -20 -19
-18 -19 -19 -20 -20 -21 -22 -23 -24 -25 -26 -27 -29 -30 -31 -31 -31 -31 -32 -31 -31 -31 -31 -32 -32 -32 -31 -31 -31 -30 -29 -28 -27 -26 -26 -25 -25 -24 -23 -23 -23 -22 -21
-19 -20 -20 -20 -21 -22 -23 -24 -25 -25 -28 -30 -31 -32 -32 -32 -32 -32 -32 -32 -32 -31 -31 -32 -32 -32 -32 -32 -32 -32 -31 -31 -29 -28 -27 -26 -25 -25 -24 -24 -23 -23 -22
-20 -20 -20 -21 -23 -23 -24 -25 -27 -29 -31 -31 -32 -33 -33 -32 -33 -33 -33 -33 -33 -32 -31 -31 -32 -32 -32 -32 -32 -32 -32 -32 -32 -31 -29 -28 -27 -26 -25 -25 -23 -23 -24
-20 -21 -22 -23 -24 -25 -26 -28 -30 -31 -32 -33 -34 -33 -33 -33 -33 -32 -33 -33 -32 -33 -32 -32 -32 -32 -32 -32 -32 -32 -32 -32 -32 -32 -32 -31 -29 -28 -26 -25 -25 -24 -24
-21 -23 -24 -24 -26 -27 -29 -30 -31 -32 -34 -34 -34 -33 -33 -33 -33 -33 -32 -33 -33 -33 -34 -34 -34 -34 -33 -33 -32 -33 -33 -32 -32 -32 -32 -32 -32 -31 -29 -27 -26 -25 -25
-23 -23 -24 -26 -27 -29 -31 -31 -32 -33 -33 -33 -33 -33 -33 -33 -32 -32 -33 -33 -34 -34 -34 -34 -34 -34 -34 -34 -33 -33 -33 -33 -33 -33 -33 -32 -32 -32 -31 -30 -28 -27 -26
-23 -24 -26 -27 -29 -31 -32 -32 -32 -33 -33 -33 -33 -33 -33 -32 -32 -33 -33 -33 -34 -34 -34 -34 -35 -35 -35 -35 -35 -34 -34 -34 -34 -33 -33 -33 -32 -32 -32 -31 -31 -29 -29
-24 -26 -27 -29 -31 -32 -32 -32 -32 -33 -33 -33 -33 -33 -33 -32 -33 -33 -33 -33 -34 -34 -35 -35 -35 -35 -35 -35 -35 -35 -34 -34 -35 -34 -33 -33 -33 -32 -32 -32 -31 -31 -30
-26 -27 -29 -30 -31 -32 -32 -32 -33 -33 -33 -33 -33 -33 -33 -33 -33 -33 -33 -34 -34 -34 -35 -36 -36 -36 -36 -36 -36 -36 -35 -35 -35 -35 -34 -33 -33 -33 -33 -33 -32 -31 -31
-27 -29 -30 -31 -32 -32 -32 -33 -33 -33 -33 -33 -33 -33 -33 -33 -33 -33 -34 -34 -34 -35 -36 -36 -37 -37 -37 -37 -37 -36 -36 -35 -35 -34 -34 -33 -32 -33 -33 -32 -32 -31 -31
-29 -30 -31 -32 -33 -33 -33 -32 -33 -33 -33 -33 -33 -33 -33 -33 -33 -33 -34 -34 -34 -35 -36 -37 -37 -37 -37 -38 -37 -36 -36 -35 -34 -34 -34 -33 -32 -32 -32 -32 -32 -32 -31
-30 -31 -32 -33 -33 -33 -33 -33 -33 -33 -33 -34 -34 -33 -33 -33 -33 -33 -34 -34 -34 -35 -36 -36 -36 -37 -38 -37 -37 -36 -36 -35 -34 -34 -34 -33 -32 -32 -32 -32 -32 -32 -32
-31 -32 -32 -33 -33 -33 -33 -33 -33 -33 -33 -34 -34 -33 -33 -33 -33 -33 -34 -34 -34 -35 -35 -35 -36 -37 -37 -37 -37 -36 -36 -35 -34 -34 -34 -33 -32 -31 -32 -32 -31 -32 -32
Height
5793 5790 5788 5785 5782 5780 5777 5773 5770 5767 5764 5762 5760 5757 5755 5753 5753 5753 5752 5750 5748 5748 5748 5748 5748 5747 5746 5747 5747 5746 5746 5744 5742 5746 5750 5752 5754 5756 5760 5761 5764 5767 5770
5785 5783 5781 5778 5775 5772 5769 5765 5761 5759 5757 5754 5752 5750 5747 5746 5744 5742 5741 5740 5739 5738 5737 5737 5737 5737 5738 5738 5738 5739 5740 5739 5740 5741 5743 5746 5747 5749 5752 5755 5757 5758 5762
5777 5777 5774 5771 5767 5763 5759 5755 5753 5750 5748 5745 5743 5740 5738 5735 5733 5731 5729 5727 5726 5726 5725 5724 5725 5724 5726 5727 5728 5728 5730 5731 5732 5734 5736 5739 5741 5742 5744 5746 5749 5750 5752
5770 5769 5766 5761 5757 5753 5750 5746 5742 5739 5736 5733 5730 5726 5724 5721 5720 5718 5716 5714 5712 5710 5711 5710 5710 5710 5710 5711 5714 5716 5718 5719 5721 5722 5723 5725 5729 5731 5735 5737 5739 5742 5744
5762 5761 5756 5751 5747 5743 5740 5736 5731 5727 5725 5722 5718 5713 5709 5704 5702 5700 5699 5698 5696 5694 5693 5692 5692 5692 5694 5695 5696 5698 5701 5706 5707 5709 5712 5715 5716 5719 5722 5725 5728 5733 5736
5753 5748 5744 5740 5735 5732 5727 5721 5717 5713 5709 5706 5702 5697 5692 5687 5684 5680 5677 5676 5674 5672 5671 5672 5672 5672 5672 5675 5677 5679 5680 5682 5689 5693 5696 5699 5703 5708 5712 5715 5718 5720 5724
5743 5739 5734 5729 5723 5717 5712 5707 5701 5695 5690 5686 5681 5677 5671 5664 5661 5658 5654 5651 5649 5646 5646 5645 5646 5647 5649 5651 5654 5656 5659 5662 5664 5670 5677 5681 5685 5690 5696 5702 5706 5708 5712
5734 5729 5723 5716 5709 5703 5697 5690 5683 5676 5669 5663 5658 5653 5648 5645 5641 5636 5632 5628 5625 5622 5619 5616 5617 5619 5622 5624 5626 5631 5635 5638 5643 5645 5651 5660 5666 5671 5677 5683 5689 5694 5700
5722 5715 5707 5700 5693 5686 5679 5671 5665 5660 5652 5644 5636 5628 5620 5614 5609 5606 5602 5597 5594 5594 5590 5587 5587 5588 5589 5593 5597 5601 5607 5614 5617 5623 5628 5633 5643 5651 5657 5664 5671 5678 5684
5708 5700 5693 5686 5679 5671 5665 5656 5648 5637 5625 5616 5607 5600 5590 5583 5577 5575 5574 5571 5565 5559 5556 5555 5552 5553 5555 5558 5565 5572 5579 5584 5592 5597 5603 5609 5614 5625 5636 5645 5652 5660 5667
5697 5689 5680 5672 5663 5653 5642 5631 5622 5613 5603 5595 5585 5577 5568 5557 5544 5532 5532 5532 5530 5529 5524 5520 5517 5516 5517 5522 5531 5540 5547 5555 5562 5569 5576 5584 5591 5598 5609 5623 5630 5640 5649
5680 5671 5662 5651 5640 5630 5620 5613 5601 5588 5578 5567 5555 5543 5534 5525 5518 5507 5500 5496 5496 5501 5493 5488 5484 5483 5484 5487 5498 5506 5516 5524 5534 5542 5550 5557 5566 5575 5584 5594 5605 5616 5626
5664 5654 5645 5634 5624 5612 5600 5587 5572 5557 5544 5531 5521 5512 5503 5497 5492 5487 5480 5476 5472 5476 5471 5464 5459 5457 5458 5462 5469 5476 5485 5492 5503 5514 5524 5532 5538 5549 5561 5570 5581 5592 5605
5651 5641 5630 5616 5602 5587 5573 5557 5542 5529 5515 5506 5497 5489 5483 5478 5473 5468 5462 5456 5455 5452 5451 5448 5444 5439 5439 5441 5445 5450 5457 5463 5472 5484 5496 5505 5515 5524 5535 5547 5559 5571 5581
5634 5621 5608 5592 5575 5562 5548 5533 5518 5506 5495 5484 5478 5473 5468 5462 5456 5450 5443 5436 5432 5433 5435 5434 5431 5428 5426 5428 5429 5432 5435 5440 5447 5455 5466 5480 5491 5501 5512 5522 5536 5548 5560
5611 5598 5585 5570 5556 5540 5526 5509 5493 5480 5473 5467 5462 5458 5453 5448 5442 5436 5429 5423 5417 5411 5409 5413 5415 5414 5412 5415 5416 5418 5422 5426 5428 5433 5442 5452 5463 5477 5488 5499 5513 5527 5537
5594 5580 5567 5552 5534 5516 5498 5484 5474 5467 5459 5454 5450 5445 5440 5434 5429 5423 5415 5410 5404 5397 5391 5393 5393 5396 5397 5397 5401 5402 5406 5411 5415 5420 5425 5431 5441 5453 5464 5477 5489 5502 5515
5577 5560 5542 5525 5508 5493 5479 5468 5460 5453 5448 5444 5440 5436 5430 5423 5417 5409 5402 5395 5389 5384 5377 5375 5377 5377 5377 5379 5383 5386 5390 5395 5402 5408 5412 5419 5426 5433 5443 5454 5467 5479 5494
5557 5540 5521 5503 5488 5474 5465 5457 5450 5445 5441 5437 5432 5426 5420 5412 5405 5396 5389 5383 5378 5373 5365 5358 5362 5360 5362 5362 5365 5369 5374 5378 5385 5394 5401 5408 5414 5421 5427 5435 5445 5458 5471
5536 5518 5500 5484 5471 5462 5455 5449 5444 5439 5435 5429 5422 5416 5408 5399 5391 5383 5377 5371 5364 5358 5351 5344 5341 5343 5343 5346 5348 5352 5357 5364 5369 5378 5388 5396 5404 5411 5417 5424 5432 5442 5450
5515 5497 5481 5468 5459 5452 5447 5443 5438 5432 5427 5420 5413 5405 5396 5387 5379 5372 5366 5359 5351 5343 5334 5328 5324 5323 5325 5328 5332 5335 5341 5349 5356 5364 5375 5385 5393 5400 5407 5413 5420 5428 5435
5495 5480 5466 5456 5449 5443 5439 5435 5429 5424 5418 5411 5404 5397 5387 5378 5369 5363 5356 5347 5338 5327 5319 5313 5310 5308 5309 5311 5314 5318 5325 5334 5343 5352 5360 5371 5382 5389 5397 5404 5408 5415 5423
5474 5462 5452 5446 5439 5435 5431 5426 5421 5415 5409 5403 5395 5387 5378 5368 5361 5355 5347 5337 5326 5315 5306 5300 5298 5295 5294 5294 5298 5305 5311 5319 5329 5337 5348 5358 5369 5378 5385 5393 5398 5405 5412
5460 5449 5441 5435 5431 5427 5423 5419 5413 5407 5401 5393 5386 5377 5368 5360 5353 5346 5338 5328 5316 5305 5296 5289 5286 5284 5282 5283 5288 5294 5301 5310 5319 5327 5335 5345 5355 5365 5373 5381 5388 5394 5402
5447 5439 5433 5428 5424 5420 5416 5410 5405 5400 5393 5385 5377 5368 5360 5352 5346 5339 5332 5322 5310 5298 5288 5282 5278 5276 5275 5278 5282 5288 5294 5302 5311 5318 5324 5334 5343 5354 5362 5370 5377 5384 5391
5436 5430 5425 5421 5417 5413 5408 5403 5398 5392 5385 5378 5369 5360 5352 5346 5340 5334 5326 5317 5305 5294 5285 5278 5274 5272 5272 5274 5278 5283 5289 5296 5303 5310 5315 5326 5334 5345 5353 5361 5367 5372 5379
Wind_Speed
34 38 38 38 37 38 33 30 29 30 30 30 31 31 32 33 34 34 34 35 37 38 38 38 38 37 36 35 34 34 34 34 35 31 31 32 31 28 28 27 30 35 36
37 34 37 38 38 38 36 34 33 34 36 37 38 38 38 39 40 40 41 41 41 41 42 41 42 43 43 42 40 38 39 38 36 38 36 36 36 35 33 30 29 29 35
31 36 39 40 41 39 39 37 36 37 39 40 42 42 42 44 44 46 48 50 49 49 49 49 48 49 48 48 46 45 43 41 41 41 41 42 41 40 39 36 34 32 31
39 42 44 41 41 39 39 40 41 43 45 47 49 49 50 51 53 54 55 56 57 57 56 56 56 56 56 55 53 51 48 48 47 45 45 45 43 44 44 43 39 37 36
43 47 43 44 44 44 45 48 49 51 54 54 56 58 60 62 63 64 64 64 64 65 65 65 65 65 63 62 62 61 58 54 52 52 51 48 48 46 46 47 45 44 44
52 51 49 49 50 53 53 55 57 59 61 62 64 66 68 69 71 72 73 73 72 71 71 71 71 71 72 71 70 68 68 65 62 58 57 56 54 53 51 49 50 49 48
48 48 50 54 56 58 60 63 66 68 70 72 74 75 75 77 76 76 75 77 78 78 78 77 77 77 77 78 77 76 74 73 72 68 66 62 61 59 56 55 52 49 51
47 51 55 58 61 63 66 70 73 76 78 80 81 81 82 80 78 79 80 80 79 80 82 82 82 81 81 81 82 82 81 81 78 78 75 71 68 65 63 60 56 54 53
53 57 61 63 65 68 71 75 77 80 83 84 84 85 87 90 91 89 88 86 85 82 82 83 85 85 85 85 85 86 87 84 84 83 82 79 75 73 70 68 64 60 58
59 61 62 64 68 74 76 79 81 86 90 93 93 93 95 95 93 94 93 90 90 91 92 91 92 92 92 91 89 89 90 89 87 86 85 82 80 78 75 74 73 69 64
58 61 66 71 76 81 83 85 90 94 96 95 94 93 93 93 94 96 95 92 90 90 91 94 98 98 97 97 95 92 91 91 90 88 87 85 83 81 82 74 75 76 73
65 70 75 82 86 87 90 92 95 96 96 95 94 93 90 86 83 81 80 77 73 71 75 77 81 85 90 91 91 92 91 89 87 87 86 86 85 82 82 77 76 76 77
72 77 81 85 86 89 93 97 97 100 101 100 92 86 81 72 67 67 65 65 68 71 63 56 60 64 67 72 78 85 88 89 89 86 86 85 86 86 84 81 78 77 76
77 80 84 89 92 95 99 100 100 98 94 86 81 73 66 67 69 61 63 66 72 60 46 40 41 46 49 53 56 59 68 77 83 86 85 87 84 85 85 84 79 76 74
80 84 90 94 98 102 101 102 101 97 79 73 68 63 64 61 57 61 65 57 56 51 46 42 42 43 42 40 41 41 43 50 60 70 76 79 84 86 85 85 82 78 76
87 91 94 97 99 102 102 99 84 74 67 63 61 54 54 58 58 55 55 56 57 58 54 49 44 45 47 44 44 44 40 38 41 47 56 64 71 77 82 82 83 80 77
89 93 94 97 100 99 91 76 65 60 58 51 49 53 55 52 50 53 54 56 55 55 56 51 49 44 47 50 48 48 46 43 39 38 40 45 55 66 76 79 80 80 78
90 93 98 99 99 88 72 60 55 45 40 40 40 42 47 47 51 52 53 50 45 45 47 46 42 41 44 46 49 50 49 48 44 40 39 36 37 48 63 73 77 79 78
93 100 101 98 86 68 53 46 36 30 32 39 43 41 46 49 47 47 43 42 44 48 52 53 47 47 42 42 46 47 49 51 50 46 41 39 36 36 47 60 74 77 77
99 100 97 83 65 49 38 33 33 33 36 41 45 44 51 47 49 44 41 45 48 50 52 52 50 46 44 41 42 46 46 52 54 52 46 41 39 35 32 48 48 65 77
98 95 82 65 50 40 34 34 35 37 40 44 47 48 52 49 48 41 42 44 46 49 48 46 43 42 41 41 40 45 47 48 56 56 51 43 41 40 36 37 46 34 59
95 84 67 52 41 35 33 35 37 39 42 47 47 50 50 48 42 39 41 45 48 49 46 40 34 36 37 41 42 42 46 47 54 58 55 50 44 44 42 40 41 54 52
84 70 54 43 37 33 35 37 38 40 44 49 47 51 47 45 37 37 40 45 48 46 41 33 30 34 36 36 38 38 41 45 45 56 60 53 47 45 44 44 42 51 48
70 57 44 38 34 33 36 36 38 41 45 48 47 51 46 40 35 37 40 44 45 42 37 30 27 26 26 25 25 30 35 38 39 42 46 48 47 46 45 46 52 48 50
59 45 37 33 32 34 35 35 38 41 44 44 45 47 44 35 34 35 40 41 40 38 32 24 21 18 18 19 21 23 26 32 32 35 38 41 45 47 44 41 45 53 50
49 38 34 32 32 33 34 36 38 41 42 42 45 42 40 31 31 33 38 39 37 34 27 20 15 12 11 20 21 21 23 26 31 32 35 37 42 44 43 40 40 40 49
Wind_Direction
294 294 297 301 299 299 297 297 298 296 298 298 296 297 298 298 297 294 292 289 288 287 285 283 279 276 272 270 271 271 270 268 268 260 257 258 252 248 250 245 227 228 227
300 298 296 298 302 302 298 295 295 297 299 300 300 300 299 296 292 291 288 286 283 282 282 281 281 278 277 274 270 266 266 266 263 260 253 249 250 249 246 246 247 232 218
288 295 298 298 298 295 292 293 298 298 298 299 298 296 294 293 289 287 286 286 285 282 278 277 275 276 274 272 270 269 265 261 261 260 255 249 247 247 247 242 244 248 236
289 296 297 299 296 297 298 299 299 299 299 298 297 296 296 294 292 289 287 284 283 281 279 278 275 272 272 270 266 265 264 263 259 255 258 258 250 247 245 246 242 240 244
298 300 298 299 300 299 298 298 299 299 297 295 295 296 297 296 294 292 289 286 282 280 277 275 273 272 269 267 266 264 261 258 258 258 254 252 255 252 246 245 244 242 239
299 302 304 301 301 301 304 304 303 300 299 299 299 299 297 295 295 293 291 288 286 282 279 275 272 270 268 267 265 262 261 260 255 253 254 253 248 248 246 243 241 241 242
302 303 303 303 304 305 305 304 305 304 303 302 299 297 295 295 293 292 290 288 286 283 279 275 272 269 266 264 263 261 259 257 257 255 252 251 250 248 245 243 240 238 240
303 304 304 305 306 305 306 305 305 305 303 300 298 295 294 293 291 290 288 286 283 280 278 275 272 269 265 263 261 258 257 256 255 255 254 250 248 247 245 243 242 239 238
307 307 307 306 306 306 306 305 304 302 300 300 299 299 299 296 294 292 291 288 284 279 272 268 268 266 263 260 258 257 256 254 254 253 253 253 249 245 244 244 241 238 236
308 306 303 302 303 303 303 301 302 305 306 306 304 302 299 296 293 290 288 283 279 277 274 270 264 261 260 257 255 254 253 254 253 253 252 252 252 249 244 241 241 239 236
302 302 304 305 306 306 306 307 307 305 304 302 300 298 294 292 288 285 282 279 276 273 270 269 267 265 262 258 255 252 251 251 251 251 251 250 250 249 248 242 239 238 237
307 309 309 310 310 309 307 307 304 302 303 301 299 297 294 290 289 288 288 286 286 284 278 272 268 267 264 262 259 256 253 250 248 248 249 249 249 248 247 244 240 236 235
309 310 311 311 309 307 306 306 305 304 306 306 303 297 296 296 294 295 294 289 284 291 291 280 275 269 264 262 262 259 256 253 250 246 244 245 247 247 245 245 242 240 235
309 308 310 310 309 309 309 309 308 306 304 300 298 299 299 298 297 293 291 295 294 292 282 287 283 275 268 264 263 260 257 256 255 251 246 243 241 244 243 243 243 240 237
309 311 314 313 311 311 310 308 307 306 302 299 298 298 295 297 296 301 304 299 297 290 283 282 279 277 275 269 267 264 259 255 252 251 250 246 243 241 241 242 240 239 237
315 315 314 312 311 310 309 309 307 304 302 301 299 299 297 297 304 300 298 296 295 294 291 287 278 270 268 265 264 263 260 260 255 247 244 242 239 240 241 241 239 237 237
315 313 313 313 313 312 312 309 305 304 302 304 305 306 305 303 303 300 298 297 295 294 291 288 285 274 263 260 257 258 258 254 255 254 245 240 235 233 237 238 239 237 236
314 314 316 315 316 315 312 309 310 308 310 316 309 309 306 306 304 301 300 298 296 296 295 295 292 286 272 259 254 252 251 252 249 248 245 241 238 229 228 232 235 235 235
317 318 317 317 316 314 313 313 315 321 316 312 314 312 312 310 306 305 301 299 298 296 293 291 287 282 278 269 255 249 244 243 243 241 240 238 236 234 229 228 229 230 230
319 319 320 318 315 313 314 316 318 316 317 319 318 313 317 314 315 311 308 306 303 300 295 291 287 279 272 268 258 249 242 234 238 238 236 236 234 231 231 222 232 231 226
320 321 320 317 314 311 310 310 311 313 316 320 319 318 321 318 316 313 311 310 309 307 300 293 284 277 270 263 259 247 242 234 229 237 236 232 233 233 230 225 223 224 231
322 321 319 315 312 309 308 310 309 312 315 318 318 321 320 318 314 314 313 315 314 312 306 298 286 277 270 264 257 245 239 235 231 230 236 231 227 231 231 229 227 229 226
322 322 317 313 311 309 312 310 309 310 315 317 316 322 321 318 315 315 318 320 319 315 312 301 291 283 275 264 251 241 236 233 231 232 234 236 224 227 229 222 227 228 226
322 320 315 314 311 311 311 310 309 311 314 318 318 323 321 318 318 320 324 325 324 321 318 306 295 288 275 252 244 236 233 231 232 233 232 230 225 223 228 223 222 228 226
322 317 314 310 307 307 312 313 313 313 316 318 321 323 321 319 321 324 329 330 331 328 325 314 303 292 264 241 237 233 229 226 226 228 233 226 224 220 226 229 227 228 231
321 317 314 309 309 312 317 316 316 314 320 321 324 323 322 320 322 329 333 337 340 340 336 327 317 302 267 235 237 235 229 222 221 226 231 221 219 218 224 229 229 229 230